Creston, IA

4:24 AM CDT on May 25, 2017 (GMT -0500)
Creston Municipal

Weather History for KCSQ - December, 2013

Change the Weather History Date:

Sunday, December 29, 2013

  Actual Average Record
Temperature  
Mean Temperature 12 °F -  
Max Temperature 23 °F 30 °F 64 °F (1984)
Min Temperature 1 °F 13 °F -11 °F (1983)
Degree Days  
Heating Degree Days 53    
Moisture  
Dew Point -2 °F    
Average Humidity 60    
Maximum Humidity 86    
Minimum Humidity 41    
Precipitation  
Precipitation 0.00 in - - ()
Sea Level Pressure  
Sea Level Pressure 30.20 in    
Wind  
Wind Speed 21 mph (NNW)    
Max Wind Speed 32 mph    
Max Gust Speed 41 mph    
Visibility 10 miles    
Events Snow    
Averages and records for this station are not official NWS values.
T = Trace of Precipitation, MM = Missing Value Source: NWS Daily Summary

Daily Weather History Graph

Daily Weather History Graph

Search for Another Location

Airport or City:

Trip Planner

Search our weather history database for the weather conditions in past years. The results will help you decide how hot, cold, wet, or windy it might be!

Date:

Astronomy

Dec. 29, 2013 Rise Set
Actual Time 7:41 AM CST 4:57 PM CST
Civil Twilight 7:10 AM CST 5:28 PM CST
Nautical Twilight 6:36 AM CST 6:03 PM CST
Astronomical Twilight 6:02 AM CST 6:36 PM CST
Moon 4:25 AM CST (12/29) 2:36 PM CST (12/29)
Length of Visible Light 10h 17m
Length of Day
9h 15m
Waning Crescent, 11% of the Moon is Illuminated
Dec 29
Waning Crescent
Jan 1
New
Jan 7
First Quarter
Jan 15
Full
Jan 23
Last Quarter

Hourly Weather History & Observations

Time (CST) Temp. Windchill Dew Point Humidity Pressure Visibility Wind Dir Wind Speed Gust Speed Precip Events Conditions
12:15 AM 23.0 °F 6.9 °F 19.4 °F 86% 29.97 in 10.0 mi NNW 24.2 mph 33.4 mph N/A   Overcast
12:35 AM 21.2 °F 2.4 °F 15.8 °F 80% 29.98 in 10.0 mi NNW 32.2 mph 41.4 mph N/A   Overcast
12:55 AM 19.4 °F 1.8 °F 15.8 °F 86% 29.99 in 10.0 mi NNW 25.3 mph 35.7 mph N/A   Overcast
1:15 AM 17.6 °F -2.5 °F 12.2 °F 79% 30.00 in 10.0 mi NW 32.2 mph - N/A Snow Light Snow
1:35 AM 17.6 °F -1.0 °F 12.2 °F 79% 30.01 in 10.0 mi NNW 26.5 mph 35.7 mph N/A Snow Light Snow
1:55 AM 15.8 °F -0.6 °F 10.4 °F 79% 30.02 in 7.0 mi NNW 18.4 mph 33.4 mph N/A Snow Light Snow
2:15 AM 14.0 °F -5.8 °F 8.6 °F 79% 30.03 in 9.0 mi NNW 26.5 mph 36.8 mph N/A Snow Light Snow
2:35 AM 14.0 °F -4.7 °F 8.6 °F 79% 30.04 in 7.0 mi NNW 23.0 mph 32.2 mph N/A Snow Light Snow
2:55 AM 14.0 °F -3.9 °F 8.6 °F 79% 30.05 in 5.0 mi NNW 20.7 mph 32.2 mph N/A Snow Light Snow
3:15 AM 14.0 °F -4.3 °F 8.6 °F 79% 30.06 in 6.0 mi NNW 21.9 mph 31.1 mph N/A Snow Light Snow
3:35 AM 12.2 °F -6.7 °F 6.8 °F 79% 30.08 in 10.0 mi NNW 21.9 mph 38.0 mph N/A Snow Light Snow
3:55 AM 12.2 °F -6.3 °F 6.8 °F 79% 30.08 in 8.0 mi NNW 20.7 mph 29.9 mph N/A Snow Light Snow
4:15 AM 12.2 °F -8.2 °F 6.8 °F 79% 30.09 in 9.0 mi NW 26.5 mph - N/A Snow Light Snow
4:35 AM 12.2 °F -7.9 °F 5.0 °F 73% 30.10 in 8.0 mi NNW 25.3 mph 32.2 mph N/A Snow Light Snow
4:55 AM 10.4 °F -10.7 °F 5.0 °F 79% 30.11 in 10.0 mi NNW 26.5 mph 34.5 mph N/A Snow Light Snow
5:15 AM 10.4 °F -9.5 °F 5.0 °F 79% 30.12 in 7.0 mi NNW 23.0 mph 29.9 mph N/A Snow Light Snow
5:35 AM 10.4 °F -8.2 °F 5.0 °F 79% 30.13 in 8.0 mi NW 19.6 mph 33.4 mph N/A Snow Light Snow
5:55 AM 10.4 °F -9.1 °F 5.0 °F 79% 30.14 in 10.0 mi NNW 21.9 mph 32.2 mph N/A   Overcast
6:15 AM 10.4 °F -10.3 °F 3.2 °F 73% 30.15 in 10.0 mi NNW 25.3 mph 33.4 mph N/A Snow Light Snow
6:35 AM 10.4 °F -9.9 °F 3.2 °F 73% 30.15 in 8.0 mi NNW 24.2 mph 34.5 mph N/A Snow Light Snow
6:55 AM 8.6 °F -12.7 °F 1.4 °F 73% 30.17 in 10.0 mi NNW 25.3 mph 38.0 mph N/A   Overcast
7:15 AM 8.6 °F -10.5 °F 3.2 °F 79% 30.18 in 9.0 mi NNW 19.6 mph 27.6 mph N/A   Overcast
7:35 AM 6.8 °F -15.9 °F 1.4 °F 79% 30.19 in 10.0 mi NW 27.6 mph - N/A   Overcast
7:55 AM 6.8 °F -13.4 °F 1.4 °F 79% 30.20 in 8.0 mi NNW 20.7 mph 32.2 mph N/A Snow Light Snow
8:15 AM 6.8 °F -15.1 °F -0.4 °F 72% 30.21 in 9.0 mi NW 25.3 mph - N/A   Overcast
8:35 AM 5.0 °F -17.5 °F -0.4 °F 78% 30.22 in 9.0 mi NNW 25.3 mph 33.4 mph N/A   Overcast
8:55 AM 6.8 °F -13.4 °F -2.2 °F 67% 30.23 in 10.0 mi NNW 20.7 mph 29.9 mph N/A   Mostly Cloudy
9:15 AM 6.8 °F -13.4 °F -0.4 °F 72% 30.23 in 10.0 mi NNW 20.7 mph - N/A   Partly Cloudy
9:35 AM 6.8 °F -13.8 °F -2.2 °F 67% 30.25 in 10.0 mi NNW 21.9 mph - N/A   Scattered Clouds
9:55 AM 6.8 °F -13.8 °F -2.2 °F 67% 30.25 in 10.0 mi NNW 21.9 mph 31.1 mph N/A   Mostly Cloudy
10:15 AM 6.8 °F -13.4 °F -2.2 °F 67% 30.26 in 10.0 mi NNW 20.7 mph 29.9 mph N/A   Partly Cloudy
10:35 AM 8.6 °F -10.5 °F -4.0 °F 57% 30.26 in 10.0 mi NNW 19.6 mph 27.6 mph N/A   Clear
10:55 AM 10.4 °F -9.9 °F -2.2 °F 57% 30.26 in 10.0 mi NNW 24.2 mph 29.9 mph N/A   Clear
11:15 AM 10.4 °F -9.5 °F -4.0 °F 52% 30.26 in 10.0 mi NNW 23.0 mph - N/A   Clear
11:35 AM 10.4 °F -9.1 °F -7.6 °F 44% 30.26 in 10.0 mi NNW 21.9 mph - N/A   Clear
11:55 AM 10.4 °F -9.9 °F -9.4 °F 41% 30.26 in 10.0 mi NNW 24.2 mph 29.9 mph N/A   Clear
12:15 PM 10.4 °F -9.5 °F -7.6 °F 44% 30.25 in 10.0 mi NNW 23.0 mph - N/A   Clear
12:35 PM 10.4 °F -9.1 °F -5.8 °F 48% 30.25 in 10.0 mi NW 21.9 mph - N/A   Clear
12:55 PM 10.4 °F -9.1 °F -5.8 °F 48% 30.26 in 10.0 mi NW 21.9 mph - N/A   Clear
1:15 PM 10.4 °F -8.2 °F -7.6 °F 44% 30.25 in 10.0 mi NW 19.6 mph 26.5 mph N/A   Clear
1:35 PM 12.2 °F -5.8 °F -7.6 °F 41% 30.25 in 10.0 mi NW 19.6 mph - N/A   Clear
1:55 PM 12.2 °F -6.7 °F -5.8 °F 45% 30.24 in 10.0 mi NNW 21.9 mph - N/A   Clear
2:15 PM 12.2 °F -5.3 °F -5.8 °F 45% 30.24 in 10.0 mi NNW 18.4 mph 25.3 mph N/A   Clear
2:35 PM 12.2 °F -5.3 °F -7.6 °F 41% 30.24 in 10.0 mi NNW 18.4 mph - N/A   Clear
2:55 PM 12.2 °F -4.8 °F -7.6 °F 41% 30.25 in 10.0 mi NNW 17.3 mph 26.5 mph N/A   Clear
3:15 PM 12.2 °F -5.3 °F -7.6 °F 41% 30.26 in 10.0 mi NNW 18.4 mph - N/A   Clear
3:35 PM 12.2 °F -5.3 °F -7.6 °F 41% 30.26 in 10.0 mi NNW 18.4 mph 25.3 mph N/A   Clear
3:55 PM 12.2 °F -4.8 °F -7.6 °F 41% 30.26 in 10.0 mi NNW 17.3 mph 24.2 mph N/A   Clear
4:15 PM 12.2 °F -4.3 °F -7.6 °F 41% 30.27 in 10.0 mi NNW 16.1 mph - N/A   Clear
4:35 PM 10.4 °F -6.6 °F -7.6 °F 44% 30.27 in 10.0 mi NNW 16.1 mph - N/A   Clear
4:55 PM 10.4 °F -6.6 °F -9.4 °F 41% 30.27 in 10.0 mi NNW 16.1 mph - N/A   Clear
5:15 PM 8.6 °F -8.3 °F -9.4 °F 44% 30.28 in 10.0 mi NW 15.0 mph - N/A   Clear
5:35 PM 8.6 °F -6.3 °F -9.4 °F 44% 30.28 in 10.0 mi NW 11.5 mph - N/A   Clear
5:55 PM 8.6 °F -5.5 °F -7.6 °F 48% 30.28 in 10.0 mi NW 10.4 mph - N/A   Clear
6:15 PM 8.6 °F -6.3 °F -9.4 °F 44% 30.27 in 10.0 mi NNW 11.5 mph - N/A   Clear
6:35 PM 6.8 °F -7.8 °F -11.2 °F 44% 30.28 in 10.0 mi NNW 10.4 mph - N/A   Clear
6:55 PM 6.8 °F -5.9 °F -11.2 °F 44% 30.28 in 10.0 mi NNW 8.1 mph - N/A   Clear
7:15 PM 5.0 °F -6.9 °F -9.4 °F 52% 30.28 in 10.0 mi NW 6.9 mph - N/A   Clear
7:35 PM 5.0 °F -10.0 °F -9.4 °F 52% 30.29 in 10.0 mi NW 10.4 mph - N/A   Clear
7:55 PM 5.0 °F -9.1 °F -9.4 °F 52% 30.29 in 10.0 mi NNW 9.2 mph - N/A   Clear
8:15 PM 5.0 °F -6.9 °F -9.4 °F 52% 30.29 in 10.0 mi NNW 6.9 mph - N/A   Clear
8:35 PM 5.0 °F -8.1 °F -9.4 °F 52% 30.29 in 10.0 mi NW 8.1 mph - N/A   Clear
8:55 PM 3.2 °F -7.8 °F -9.4 °F 56% 30.29 in 10.0 mi NNW 5.8 mph - N/A   Clear
9:15 PM 3.2 °F -10.3 °F -9.4 °F 56% 30.28 in 10.0 mi NNW 8.1 mph - N/A   Clear
9:35 PM 3.2 °F -11.3 °F -11.2 °F 51% 30.27 in 10.0 mi NNW 9.2 mph - N/A   Clear
9:55 PM 3.2 °F -9.1 °F -9.4 °F 56% 30.28 in 10.0 mi NNW 6.9 mph - N/A   Clear
10:15 PM 1.4 °F - -9.4 °F 61% 30.28 in 10.0 mi Calm Calm - N/A   Clear
10:35 PM 1.4 °F -8.3 °F -11.2 °F 56% 30.28 in 10.0 mi North 4.6 mph - N/A   Clear
10:55 PM 1.4 °F -9.9 °F -13.0 °F 51% 30.28 in 10.0 mi North 5.8 mph - N/A   Clear
11:15 PM 1.4 °F -9.9 °F -13.0 °F 51% 30.28 in 10.0 mi North 5.8 mph - N/A   Clear
11:35 PM 1.4 °F -8.3 °F -13.0 °F 51% 30.28 in 10.0 mi NNE 4.6 mph - N/A   Clear
11:55 PM 1.4 °F - -9.4 °F 61% 30.28 in 10.0 mi Calm Calm - N/A   Clear